Date String (YYYY-MM-DD hh:mm:ss) UTC,Instrument flags,Ambient pressure (hPa),Sample flow (lpm),Bypass flow (lpm),Sample temperature (°C),Ambient temperature (°C),ASC tube jacket temperature (°C),LED temperature (°C),Box temperature (°C),Sample RH (%),Span deviation,Mass concentration (μg/m³),Mass concentration (μg/m³),Mass concentration (μg/m³)
DateTimeUTC,F1_M11,P_M11,Q1_M11,Q2_M11,T1_M11,T2_M11,T3_M11,T4_M11,T5_M11,U1_M11,ZSPAN_M11,X0_M11,X2_M11,X1_M11
2022-08-09 18:00:00,,0831.7,5.00,0.00,29.5,27.1,00.0,38.2,31.1,32.8,0000.0,0012.93,0006.02,0005.16
2022-08-09 18:01:00,,0831.7,5.01,0.00,29.4,27.1,00.0,38.2,31.1,32.5,0000.0,0013.31,0006.01,0005.16
2022-08-09 18:02:00,,0831.7,4.99,0.00,29.4,27.1,00.0,38.2,31.0,32.5,0000.0,0013.61,0006.02,0005.16
2022-08-09 18:03:00,,0831.7,5.01,0.00,29.3,27.3,00.0,38.2,31.0,32.6,0000.0,0012.47,0005.96,0005.14
2022-08-09 18:04:00,,0831.7,4.99,0.00,29.4,27.5,00.0,38.2,31.1,33.2,0000.0,0012.35,0005.90,0005.12
2022-08-09 18:05:00,,0831.7,5.01,0.00,29.4,27.7,00.0,38.2,31.2,34.4,0000.0,0012.46,0005.89,0005.11
2022-08-09 18:06:00,,0831.7,5.01,0.00,29.4,27.9,00.0,38.2,31.3,35.1,0000.0,0012.03,0005.87,0005.12
2022-08-09 18:07:00,,0831.7,4.98,0.00,29.6,28.1,00.0,38.2,31.4,33.9,0000.0,0011.22,0005.86,0005.10
2022-08-09 18:08:00,,0831.7,5.02,0.00,29.8,27.9,00.0,38.2,31.4,32.3,0000.0,0011.01,0005.83,0005.08
2022-08-09 18:09:00,,0831.7,4.99,0.00,29.8,27.4,00.0,38.1,31.3,32.5,0000.0,0010.97,0005.80,0005.07
2022-08-09 18:10:00,,0831.7,5.00,0.00,29.8,27.2,00.0,38.2,31.2,32.5,0000.0,0011.02,0005.81,0005.06
2022-08-09 18:11:00,,0831.7,5.00,0.00,29.7,27.2,00.0,38.2,31.1,32.0,0000.0,0010.63,0005.77,0005.05
2022-08-09 18:12:00,,0831.7,4.99,0.00,29.7,27.3,00.0,38.2,31.1,32.2,0000.0,0009.82,0005.70,0005.03
2022-08-09 18:13:00,,0831.7,5.00,0.00,29.7,27.5,00.0,38.2,31.1,32.4,0000.0,0009.56,0005.68,0005.02
2022-08-09 18:14:00,,0831.7,4.99,0.00,29.7,27.7,00.0,38.2,31.2,31.8,0000.0,0010.20,0005.72,0005.04
2022-08-09 18:15:00,,0831.7,5.00,0.00,29.7,27.9,00.0,38.2,31.3,31.5,0000.0,0010.28,0005.76,0005.06
2022-08-09 18:16:00,,0831.6,5.00,0.00,29.8,28.0,00.0,38.3,31.4,31.2,0000.0,0010.34,0005.75,0005.06
2022-08-09 18:17:00,,0831.7,5.01,0.00,29.7,27.6,00.0,38.3,31.2,31.5,0000.0,0010.23,0005.71,0005.06
2022-08-09 18:18:00,,0831.6,4.99,0.00,29.7,27.3,00.0,38.2,31.2,32.3,0000.0,0010.36,0005.74,0005.07
2022-08-09 18:19:00,,0831.6,5.00,0.00,29.7,27.2,00.0,38.2,31.2,31.7,0000.0,0010.75,0005.76,0005.08
2022-08-09 18:20:00,,0831.6,5.01,0.00,29.6,27.3,00.0,38.2,31.1,32.0,0000.0,0011.26,0005.76,0005.09
2022-08-09 18:21:00,,0831.6,4.99,0.00,29.5,27.4,00.0,38.2,31.1,33.4,0000.0,0011.22,0005.75,0005.11
2022-08-09 18:22:00,,0831.6,5.00,0.00,29.5,27.6,00.0,38.2,31.1,33.6,0000.0,0011.84,0005.74,0005.13
2022-08-09 18:23:00,,0831.6,5.00,0.00,29.6,27.8,00.0,38.2,31.2,33.3,0000.0,0012.00,0005.78,0005.16
2022-08-09 18:24:00,,0831.5,5.00,0.00,29.6,28.0,00.0,38.2,31.3,34.2,0000.0,0012.58,0005.80,0005.19
2022-08-09 18:25:00,,0831.5,5.00,0.00,29.7,28.1,00.0,38.3,31.4,35.5,0000.0,0012.86,0005.82,0005.20
2022-08-09 18:26:00,,0831.6,5.01,0.00,29.9,27.7,00.0,38.2,31.4,34.6,0000.0,0013.34,0005.84,0005.23
2022-08-09 18:27:00,,0831.5,5.01,0.00,30.1,27.3,00.0,38.2,31.4,34.1,0000.0,0013.58,0005.94,0005.25
2022-08-09 18:28:00,,0831.5,4.99,0.00,30.2,27.2,00.0,38.2,31.3,34.8,0000.0,0013.87,0006.02,0005.27
2022-08-09 18:29:00,,0831.5,5.00,0.00,30.2,27.2,00.0,38.3,31.3,33.9,0000.0,0014.15,0006.04,0005.29
2022-08-09 18:30:00,,0831.6,5.00,0.00,30.3,27.4,00.0,38.3,31.3,33.2,0000.0,0013.86,0006.07,0005.32
2022-08-09 18:31:00,,0831.5,5.01,0.00,30.3,27.6,00.0,38.3,31.4,33.7,0000.0,0013.41,0006.11,0005.34
2022-08-09 18:32:00,,0831.5,5.01,0.00,30.4,27.8,00.0,38.4,31.4,34.3,0000.0,0014.21,0006.21,0005.37
2022-08-09 18:33:00,,0831.5,5.00,0.00,30.4,28.0,00.0,38.5,31.5,33.7,0000.0,0013.96,0006.32,0005.40
2022-08-09 18:34:00,,0831.6,5.00,0.00,30.4,28.0,00.0,38.5,31.5,33.5,0000.0,0014.01,0006.34,0005.42
2022-08-09 18:35:00,,0831.5,4.99,0.00,30.4,27.5,00.0,38.5,31.4,33.1,0000.0,0013.88,0006.35,0005.43
2022-08-09 18:36:00,,0831.5,5.01,0.00,30.3,27.2,00.0,38.5,31.3,33.2,0000.0,0013.78,0006.34,0005.45
2022-08-09 18:37:00,,0831.5,5.01,0.00,30.3,27.2,00.0,38.5,31.2,33.7,0000.0,0013.28,0006.31,0005.45
2022-08-09 18:38:00,,0831.5,4.99,0.00,30.2,27.3,00.0,38.5,31.1,34.5,0000.0,0013.07,0006.26,0005.46
2022-08-09 18:39:00,,0831.5,5.00,0.00,30.1,27.5,00.0,38.6,31.2,34.1,0000.0,0012.84,0006.25,0005.48
2022-08-09 18:40:00,,0831.5,4.99,0.00,30.2,27.7,00.0,38.6,31.3,33.6,0000.0,0012.83,0006.27,0005.48
2022-08-09 18:41:00,,0831.5,5.01,0.00,30.2,27.9,00.0,38.6,31.4,33.2,0000.0,0013.13,0006.24,0005.48
2022-08-09 18:42:00,,0831.5,5.00,0.00,30.2,28.1,00.0,38.6,31.5,33.2,0000.0,0013.54,0006.23,0005.48
2022-08-09 18:43:00,,0831.5,5.00,0.00,30.2,28.0,00.0,38.6,31.5,33.2,0000.0,0013.01,0006.19,0005.47
2022-08-09 18:44:00,,0831.5,5.00,0.00,30.2,27.5,00.0,38.6,31.4,33.5,0000.0,0012.70,0006.09,0005.45
2022-08-09 18:45:00,,0831.5,5.01,0.00,30.1,27.2,00.0,38.6,31.3,33.9,0000.0,0013.74,0006.06,0005.42
2022-08-09 18:46:00,,0831.4,4.99,0.00,30.1,27.2,00.0,38.6,31.3,33.3,0000.0,0013.99,0006.04,0005.38
2022-08-09 18:47:00,,0831.4,4.99,0.00,30.0,27.3,00.0,38.5,31.2,33.5,0000.0,0013.33,0006.05,0005.36
2022-08-09 18:48:00,,0831.4,5.00,0.00,29.9,27.5,00.0,38.5,31.3,33.5,0000.0,0013.88,0006.07,0005.34
2022-08-09 18:49:00,,0831.5,4.99,0.00,29.9,27.7,00.0,38.5,31.3,33.2,0000.0,0014.04,0006.06,0005.32
2022-08-09 18:50:00,,0831.5,5.01,0.00,29.9,27.9,00.0,38.5,31.4,33.3,0000.0,0014.15,0006.04,0005.28
2022-08-09 18:51:00,,0831.4,5.00,0.00,30.0,28.0,00.0,38.5,31.4,33.5,0000.0,0014.02,0006.02,0005.25
2022-08-09 18:52:00,,0831.5,5.00,0.00,30.0,27.8,00.0,38.5,31.4,33.3,0000.0,0013.71,0006.01,0005.23
2022-08-09 18:53:00,,0831.4,5.00,0.00,29.9,27.3,00.0,38.5,31.2,33.3,0000.0,0014.23,0006.00,0005.21
2022-08-09 18:54:00,,0831.4,5.01,0.00,29.8,27.1,00.0,38.5,31.2,33.4,0000.0,0014.08,0005.98,0005.19
2022-08-09 18:55:00,,0831.4,4.99,0.00,29.8,27.2,00.0,38.4,31.1,33.2,0000.0,0014.49,0006.02,0005.18
2022-08-09 18:56:00,,0831.5,5.02,0.00,29.7,27.3,00.0,38.4,31.1,34.7,0000.0,0014.05,0006.04,0005.18
2022-08-09 18:57:00,,0831.4,4.99,0.00,29.8,27.5,00.0,38.4,31.2,33.4,0000.0,0013.25,0006.02,0005.18
2022-08-09 18:58:00,,0831.5,5.00,0.00,29.8,27.7,00.0,38.4,31.3,32.3,0000.0,0013.64,0006.01,0005.16
2022-08-09 18:59:00,,0831.5,5.00,0.00,29.9,27.9,00.0,38.4,31.4,32.1,0000.0,0013.47,0005.95,0005.12
